Orbital Elements at Epoch 2459200.5 (2020-Dec-17.0) TDB
Reference: JPL 23 (heliocentric ecliptic J2000)
Element | Value | Uncertainty (1-sigma) | Units |
e | .2014290177802599 | 3.664e-08 | |
a | 2.645572904338997 | 1.3707e-08 | au |
q | 2.112677752751923 | 9.4447e-08 | au |
i | 2.37783450625157 | 4.5856e-06 | deg |
node | 160.1062748443123 | 0.00011978 | deg |
peri | 155.0177247934253 | 0.0001205 | deg |
M | 140.0602585862836 | 1.4197e-05 | deg |
tp | 2458589.008462968376 (2019-Apr-15.50846297) | 6.0388e-05 | TDB |
period | 1571.730307750147 4.30 | 1.2215e-05 3.344e-08 | d yr |
n | .2290469288686822 | 1.7801e-09 | deg/d |
Q | 3.178468055926071 | 1.6468e-08 | au |
|
| | Orbit Determination Parameters
Additional Information
|